Date String (YYYY-MM-DD hh:mm:ss) UTC,Instrument flags,Ambient pressure (hPa),Sample flow (lpm),Bypass flow (lpm),Sample temperature (°C),Ambient temperature (°C),ASC tube jacket temperature (°C),LED temperature (°C),Box temperature (°C),Sample RH (%),Span deviation,Mass concentration (μg/m³),Mass concentration (μg/m³),Mass concentration (μg/m³)
DateTimeUTC,F1_M11,P_M11,Q1_M11,Q2_M11,T1_M11,T2_M11,T3_M11,T4_M11,T5_M11,U1_M11,ZSPAN_M11,X0_M11,X2_M11,X1_M11
2023-03-05 07:00:00,,0815.2,4.99,0.00,22.6,22.0,00.0,31.2,24.4,14.1,0000.3,0015.99,0010.79,0009.95
2023-03-05 07:01:00,,0815.1,5.01,0.00,22.6,21.7,00.0,31.2,24.3,14.1,0000.2,0015.97,0010.77,0009.93
2023-03-05 07:02:00,,0814.9,5.00,0.00,22.6,21.5,00.0,31.2,24.3,14.0,0000.1,0015.80,0010.73,0009.91
2023-03-05 07:03:00,,0814.9,5.01,0.00,22.5,21.3,00.0,31.2,24.3,14.0,-000.0,0016.18,0010.66,0009.86
2023-03-05 07:04:00,,0814.8,4.99,0.00,22.5,21.2,00.0,31.2,24.2,14.0,-000.3,0016.45,0010.56,0009.80
2023-03-05 07:05:00,,0814.8,5.00,0.00,22.5,21.1,00.0,31.2,24.2,13.8,-000.3,0016.56,0010.41,0009.70
2023-03-05 07:06:00,,0815.0,5.00,0.00,22.5,21.0,00.0,31.2,24.2,13.8,-000.5,0016.51,0010.31,0009.60
2023-03-05 07:07:00,,0815.1,5.00,0.00,22.5,21.0,00.0,31.2,24.2,13.7,-000.4,0015.76,0010.15,0009.45
2023-03-05 07:08:00,,0814.8,4.98,0.00,22.5,20.9,00.0,31.2,24.2,13.7,-000.2,0015.63,0010.00,0009.29
2023-03-05 07:09:00,,0814.8,5.01,0.00,22.5,20.9,00.0,31.2,24.2,13.7,-000.2,0015.70,0009.87,0009.16
2023-03-05 07:10:00,,0814.7,5.00,0.00,22.4,20.8,00.0,31.2,24.2,13.6,-000.3,0015.55,0009.74,0009.04
2023-03-05 07:11:00,,0814.9,4.99,0.00,22.4,20.8,00.0,31.2,24.2,13.5,-000.3,0015.63,0009.60,0008.92
2023-03-05 07:12:00,,0814.7,4.99,0.00,22.4,20.8,00.0,31.2,24.2,13.5,-000.0,0015.79,0009.45,0008.79
2023-03-05 07:13:00,,0815.2,4.99,0.00,22.4,20.7,00.0,31.2,24.1,13.6,0000.2,0015.75,0009.36,0008.67
2023-03-05 07:14:00,,0815.1,5.00,0.00,22.4,20.6,00.0,31.2,24.1,13.5,0000.5,0015.16,0009.28,0008.57
2023-03-05 07:15:00,,0815.1,5.02,0.00,22.4,20.6,00.0,31.2,24.1,13.5,0000.7,0014.72,0009.21,0008.48
2023-03-05 07:16:00,,0815.1,5.00,0.00,22.4,21.1,00.0,31.1,24.2,13.5,0000.6,0014.32,0009.14,0008.40
2023-03-05 07:17:00,,0814.8,4.98,0.00,22.5,22.2,00.0,31.1,24.4,13.5,0000.5,0014.26,0009.15,0008.40
2023-03-05 07:18:00,,0814.7,5.00,0.00,22.6,23.0,00.0,31.2,24.6,13.5,0000.4,0014.29,0009.16,0008.42
2023-03-05 07:19:00,,0815.0,4.98,0.00,22.6,22.7,00.0,31.2,24.6,13.5,0000.1,0013.95,0009.15,0008.42
2023-03-05 07:20:00,,0815.1,5.00,0.00,22.6,22.3,00.0,31.2,24.5,13.3,0000.0,0013.67,0009.13,0008.40
2023-03-05 07:21:00,,0814.9,4.99,0.00,22.6,22.0,00.0,31.3,24.5,13.4,0000.0,0013.89,0009.15,0008.40
2023-03-05 07:22:00,,0814.6,5.00,0.00,22.6,21.7,00.0,31.3,24.4,13.5,0000.0,0014.10,0009.21,0008.45
2023-03-05 07:23:00,,0814.8,5.00,0.00,22.6,21.5,00.0,31.3,24.4,13.5,-000.1,0014.49,0009.26,0008.51
2023-03-05 07:24:00,,0814.8,5.00,0.00,22.6,21.3,00.0,31.3,24.3,13.6,-000.3,0014.67,0009.36,0008.59
2023-03-05 07:25:00,,0814.5,5.00,0.00,22.6,21.2,00.0,31.3,24.3,13.6,-000.4,0015.01,0009.54,0008.73
2023-03-05 07:26:00,,0814.6,5.00,0.00,22.6,21.1,00.0,31.3,24.3,13.7,-000.5,0015.15,0009.67,0008.86
2023-03-05 07:27:00,,0815.0,5.01,0.00,22.6,21.0,00.0,31.3,24.2,13.7,-000.3,0015.73,0009.82,0009.01
2023-03-05 07:28:00,,0815.1,5.00,0.00,22.5,20.8,00.0,31.3,24.2,13.8,-000.3,0016.02,0009.91,0009.11
2023-03-05 07:29:00,,0814.8,5.01,0.00,22.5,20.7,00.0,31.3,24.2,13.8,-000.1,0016.31,0010.04,0009.17
2023-03-05 07:30:00,,0814.8,5.01,0.00,22.5,20.6,00.0,31.2,24.1,13.8,0000.0,0016.88,0010.11,0009.27
2023-03-05 07:31:00,,0815.0,4.99,0.00,22.4,20.6,00.0,31.2,24.1,13.9,0000.2,0017.11,0010.19,0009.35
2023-03-05 07:32:00,,0815.1,5.01,0.00,22.4,20.4,00.0,31.2,24.0,13.9,0000.1,0016.95,0010.24,0009.42
2023-03-05 07:33:00,,0814.8,4.99,0.00,22.3,20.3,00.0,31.2,24.0,14.0,0000.0,0016.58,0010.28,0009.47
2023-03-05 07:34:00,,0815.2,4.99,0.00,22.3,20.3,00.0,31.2,24.0,14.0,0000.1,0016.30,0010.33,0009.51
2023-03-05 07:35:00,,0814.7,4.98,0.00,22.4,21.2,00.0,31.2,24.1,14.0,0000.1,0016.32,0010.33,0009.51
2023-03-05 07:36:00,,0814.9,4.99,0.00,22.4,22.3,00.0,31.2,24.3,14.0,-000.3,0016.16,0010.28,0009.49
2023-03-05 07:37:00,,0814.7,5.01,0.00,22.5,22.8,00.0,31.2,24.5,13.9,-000.2,0016.29,0010.33,0009.54
2023-03-05 07:38:00,,0814.9,5.01,0.00,22.6,22.5,00.0,31.2,24.5,13.9,-000.5,0016.03,0010.43,0009.63
2023-03-05 07:39:00,,0814.8,4.99,0.00,22.6,22.1,00.0,31.2,24.4,13.9,-000.7,0016.14,0010.57,0009.73
2023-03-05 07:40:00,,0814.9,5.01,0.00,22.6,21.8,00.0,31.2,24.4,13.9,-001.0,0016.41,0010.68,0009.85
2023-03-05 07:41:00,,0814.9,5.00,0.00,22.6,21.6,00.0,31.3,24.3,13.9,-001.0,0016.51,0010.86,0009.98
2023-03-05 07:42:00,,0814.9,4.99,0.00,22.5,21.2,00.0,31.3,24.2,13.9,-001.1,0016.68,0011.02,0010.12
2023-03-05 07:43:00,,0814.9,5.00,0.00,22.5,21.0,00.0,31.2,24.2,13.9,-001.2,0016.91,0011.18,0010.24
2023-03-05 07:44:00,,0814.9,5.00,0.00,22.5,20.8,00.0,31.2,24.1,14.0,-001.2,0017.01,0011.31,0010.35
2023-03-05 07:45:00,,0814.9,5.00,0.00,22.4,20.8,00.0,31.2,24.1,14.0,-001.2,0016.83,0011.41,0010.46
2023-03-05 07:46:00,,0815.2,5.00,0.00,22.4,20.7,00.0,31.2,24.1,14.0,-001.1,0016.93,0011.53,0010.58
2023-03-05 07:47:00,,0815.3,5.01,0.00,22.4,20.7,00.0,31.2,24.1,14.0,-001.0,0017.15,0011.68,0010.69
2023-03-05 07:48:00,,0814.8,5.00,0.00,22.4,20.7,00.0,31.2,24.1,14.0,-001.0,0017.17,0011.74,0010.75
2023-03-05 07:49:00,,0814.9,5.01,0.00,22.4,20.7,00.0,31.2,24.1,14.0,-000.8,0017.11,0011.75,0010.76
2023-03-05 07:50:00,,0814.9,5.00,0.00,22.3,20.6,00.0,31.2,24.1,14.0,-000.6,0016.96,0011.68,0010.73
2023-03-05 07:51:00,,0814.8,5.01,0.00,22.3,20.6,00.0,31.2,24.1,14.0,-000.5,0016.55,0011.56,0010.64
2023-03-05 07:52:00,,0814.9,5.00,0.00,22.3,20.6,00.0,31.2,24.1,14.0,-000.5,0016.04,0011.41,0010.54
2023-03-05 07:53:00,,0815.0,4.99,0.00,22.3,20.9,00.0,31.1,24.1,14.0,-000.4,0015.74,0011.31,0010.43
2023-03-05 07:54:00,,0815.0,4.99,0.00,22.4,21.9,00.0,31.1,24.3,13.9,-000.5,0015.48,0011.14,0010.32
2023-03-05 07:55:00,,0815.0,4.99,0.00,22.5,22.9,00.0,31.1,24.5,13.9,-000.6,0015.27,0011.02,0010.22
2023-03-05 07:56:00,,0815.1,5.02,0.00,22.6,23.0,00.0,31.2,24.6,13.8,-000.5,0015.11,0010.91,0010.12
2023-03-05 07:57:00,,0814.9,4.98,0.00,22.6,22.6,00.0,31.2,24.5,13.7,-000.9,0014.95,0010.81,0010.03
2023-03-05 07:58:00,,0814.9,5.00,0.00,22.6,22.2,00.0,31.2,24.5,13.7,-000.8,0014.91,0010.76,0009.99
2023-03-05 07:59:00,,0815.1,5.01,0.00,22.6,21.9,00.0,31.3,24.4,13.7,-000.7,0014.81,0010.69,0009.93
